Location: Avebury
(53.1487°N, 106.9774°W)
Time: 13:44:29
(UTC+00:00)

Envisat - Pass Details

Date: 21 January 2022
Orbit: 764 x 765 km, 98.2° (Epoch: 22 May)

Event Time Altitude Azimuth Distance (km) Brightness Sun altitude
Rises 12:21:38 0° 14° (NNE) 3,244 6.4 -24.3°
Reaches altitude 10° 12:23:57 10° 14° (NNE) 2,314 5.6 -24.0°
Maximum altitude 12:29:03 87° 288° (WNW) 774 2.9 -23.2°
Drops below altitude 10° 12:34:08 10° 198° (SSW) 2,298 5.3 -22.4°
Sets 12:36:25 0° 198° (SSW) 3,220 6.1 -22.1°
